Regional Weather Roundup
Issued by NWS

Home | Current Version | Previous Version | Graphics & Text | Print | Product List | Glossary On
Versions: 1 2 3 4 5 6 7 8 9 10 11 12 13 14 15 16 17 18 19 20 21 22 23 24 25 26 27 28 29 30 31 32 33 34 35 36 37 38 39 40 41 42 43 44 45 46 47 48 49 50
000
ASUS45 KSLC 290310
RWRUT

UTAH REGIONAL WEATHER ROUNDUP
NATIONAL WEATHER SERVICE SALT LAKE CITY UT
900 PM MDT THU MAY 28 2015

UTZ001>011-023>025-290400-

NORTHERN UTAH

CITY           SKY/WX    TMP DP  RH WIND       PRES   REMARKS
BRIGHAM CITY   CLEAR     63  49  59 N6        30.13R
HILL AFB       CLEAR     59  42  52 E6        30.13R
LOGAN          CLEAR     56  48  74 N5        30.14R
OGDEN          CLEAR     60  45  57 NW5       30.11R
PROVO AIRPORT  PTCLDY    64  37  36 NW5       30.11S
SALT LAKE CITY PTCLDY    64  45  49 N8        30.10R
VERNAL         PTCLDY    53  41  63 N7        30.16R
WENDOVER       CLEAR     66  48  52 E7        30.09R
HEBER CITY     CLEAR     54  41  62 CALM      30.16R
WEST JORDAN    CLEAR     61  43  51 NW3       30.13R

$$

UTZ012>022-026-027-290400-

SOUTHERN/CENTRAL UTAH

CITY           SKY/WX    TMP DP  RH WIND       PRES   REMARKS
BLANDING       CLOUDY    65  37  36 W24G32    30.23R
BRYCE CANYON   CLOUDY    51  39  63 NE8       30.28R
CEDAR CITY     MOCLDY    58  46  64 NE13      30.17R
DELTA          CLEAR     63  41  45 S7        30.11R
HANKSVILLE     CLOUDY    70  37  30 N5        30.09R
MILFORD        CLOUDY    63  49  60 NW8       30.13R
MOAB/CYNLANDS  CLEAR     64  38  38 N8        30.06R
PRICE          CLEAR     61  36  39 N13       30.14R
ST GEORGE      CLEAR     88  34  14 W6        29.92S
KANAB          PTCLDY    70  37  30 N7        30.09R

$$

REGIONAL REPORTS     COLORADO/ARIZONA

CITY           SKY/WX    TMP DP  RH WIND       PRES   REMARKS
CRAIG, CO      CLOUDY    46  40  79 S12       30.20S
GRAND JUNCTION MOCLDY    58  44  60 NE3       30.12R
RIFLE          CLEAR     55  41  59 NW3       30.18R
MONTROSE       PTCLDY    53  42  66 SE24G35   30.19S
CORTEZ         CLEAR     56  41  57 NE6       30.15R
PAGE, AZ       PTCLDY    75  39  27 NW3       30.02R
GRAND CANYON   CLEAR     57  36  45 CALM      30.17R
KINGMAN        CLOUDY    78  19  11 SW8       29.97R
FLAGSTAFF      CLEAR     59  22  24 SW5       30.21R

$$

REGIONAL REPORTS    NEVADA/IDAHO/WYOMING

CITY           SKY/WX    TMP DP  RH WIND       PRES   REMARKS
LAS VEGAS, NV  CLOUDY    91  26   9 S15G21    29.80R
ELY            PTCLDY    61  40  45 S7        30.15R
ELKO           CLEAR     68  41  37 N8        30.10R
POCATELLO, ID  MOCLDY    58  51  78 NW6       30.16R
BURLEY         PTCLDY    60  45  57 S6        30.09R
EVANSTON, WY   CLEAR     49  37  63 N3        30.24R
ROCK SPRINGS   MOCLDY    47  40  76 SW12      30.19S
KEMMERER       PTCLDY    45  37  76 NW8       30.23S

$$



USA.gov is the U.S. government's official web portal to all federal, state and local government web resources and services.